EW3205 Weather Reports


time (UTC)temp
F
wind
direction
speed
knots
gust
knots
rain 1hr
in
rain 24hr
in
rain mn
in
humidity
%
barometer
mb
20260906124535 65 239 7.0 16.5 0.00 0.01 0.00 68 1019.4
20260906123041 65 226 4.3 15.6 0.00 0.01 0.00 67 1019.4
20260906121535 65 256 4.3 16.5 0.00 0.01 0.00 69 1019.3
20260906120033 63 244 7.8 18.2 0.00 0.01 0.00 69 1019.3
20260906114534 64 69 6.1 10.4 0.00 0.01 0.00 69 1019.3
20260906113032 64 248 3.5 13.9 0.00 0.01 0.00 68 1019.2
20260906111528 64 219 6.1 13.9 0.00 0.01 0.00 66 1019.0
20260906110026 64 239 5.2 13.0 0.00 0.01 0.00 69 1018.9
20260906104539 64 245 5.2 15.6 0.00 0.01 0.00 70 1018.7
20260906103040 65 289 4.3 10.4 0.00 0.01 0.00 69 1018.4
20260906101521 64 327 4.3 13.0 0.00 0.01 0.00 68 1018.3
20260906100026 64 244 6.1 13.0 0.00 0.01 0.00 69 1018.1
20260906094517 64 259 1.7 9.6 0.00 0.01 0.00 68 1017.9
20260906093020 64 244 1.7 11.3 0.00 0.01 0.00 69 1017.8
20260906091520 64 315 2.6 9.6 0.00 0.01 0.00 70 1017.7
20260906090008 64 256 2.6 9.6 0.00 0.01 0.00 71 1017.6
20260906084504 63 348 3.5 11.3 0.00 0.01 0.00 71 1017.5
20260906083101 63 254 2.6 7.8 0.00 0.01 0.00 72 1017.3
20260906081558 63 244 3.5 10.4 0.00 0.01 0.00 74 1017.1
20260906080056 63 359 1.7 11.3 0.00 0.01 0.00 73 1016.9
20260906074552 62 267 3.5 9.6 0.00 0.01 0.00 75 1016.7
20260906073045 62 244 2.6 9.6 0.00 0.01 0.00 76 1016.5
20260906071541 61 266 1.7 8.7 0.00 0.01 0.00 78 1016.2
20260906070039 60 244 1.7 6.1 0.00 0.01 0.00 79 1016.3
20260906064536 60 264 1.7 6.1 0.00 0.01 0.00 80 1016.0
20260906063037 59 245 2.6 7.8 0.00 0.01 0.00 80 1015.8
20260906061531 59 249 4.3 11.3 0.00 0.01 0.00 81 1015.8
20260906060028 58 232 2.6 9.6 0.00 0.01 0.00 82 1015.6
20260906054547 58 325 1.7 7.0 0.00 0.01 0.00 82 1015.4
20260906053024 58 247 2.6 10.4 0.00 0.01 0.00 83 1015.1
20260906051530 58 239 2.6 8.7 0.00 0.01 0.00 83 1014.8
20260906050028 57 229 3.5 8.7 0.00 0.01 0.00 83 1014.7
20260906044518 57 241 0.9 7.8 0.00 0.01 0.00 83 1014.5
20260906043016 57 281 1.7 7.0 0.00 0.01 0.00 83 1014.4
20260906041514 57 256 2.6 7.8 0.00 0.01 0.00 84 1014.1
20260906040014 57 277 1.7 7.0 0.00 0.01 0.00 83 1013.9
20260906034512 57 224 2.6 7.8 0.00 0.01 0.00 84 1013.7
20260906033010 57 315 1.7 7.0 0.00 0.01 0.00 84 1013.6
20260906031523 57 220 2.6 7.0 0.00 0.01 0.00 84 1013.5
20260906030010 58 230 1.7 7.0 0.00 0.01 0.00 84 1013.3
20260906024517 58 215 0.0 8.7 0.00 0.01 0.00 85 1013.2
20260906023003 57 237 2.6 7.8 0.00 0.01 0.00 86 1013.0
20260906021503 58 310 0.9 4.3 0.00 0.01 0.00 87 1012.9
20260906014559 58 268 0.9 7.0 0.00 0.06 0.00 87 1012.7
20260906013105 57 240 1.7 6.1 0.00 0.06 0.00 87 1012.6
20260906011557 57 258 1.7 7.8 0.00 0.06 0.00 87 1012.4
20260906010055 57 242 0.9 4.3 0.00 0.06 0.00 86 1012.1
20260906004554 57 218 0.9 6.1 0.00 0.08 0.00 86 1011.9
20260906003052 57 294 0.9 6.1 0.00 0.08 0.00 87 1011.7
20260906001549 56 359 0.9 6.1 0.00 0.08 0.00 90 1011.5
20260906000055 55 276 0.9 7.0 0.00 0.08 0.00 92 1011.4
20260905234550 53 244 0.0 2.6 0.00 0.08 0.00 93 1011.2
20260905233044 51 217 0.0 1.7 0.00 0.08 0.00 91 1011.1
20260905231542 52 230 0.0 0.9 0.00 0.08 0.00 91 1011.0
20260905230041 52 230 0.0 1.7 0.00 0.08 0.00 91 1010.7
20260905224538 52 230 0.0 1.7 0.00 0.08 0.00 90 1010.6
20260905223035 53 243 0.0 0.9 0.00 0.08 0.00 89 1010.4
20260905221532 54 247 0.0 0.9 0.00 0.08 0.00 88 1010.3
20260905220026 56 263 0.9 4.3 0.00 0.08 0.00 86 1010.2
20260905214524 56 250 0.9 4.3 0.00 0.13 0.08 88 1009.9
20260905213023 56 260 0.0 4.3 0.00 0.13 0.08 86 1009.8
20260905211542 56 253 0.0 3.5 0.00 0.13 0.08 84 1009.5
20260905210020 57 355 0.0 4.3 0.00 0.13 0.08 84 1009.3
20260905204519 57 48 0.0 2.6 0.00 0.16 0.08 84 1009.0
20260905203018 57 346 0.9 5.2 0.00 0.16 0.08 84 1008.8
20260905201523 57 302 0.9 6.1 0.00 0.16 0.08 84 1008.7
20260905200015 57 335 1.7 5.2 0.00 0.16 0.08 83 1008.4
20260905194513 57 257 0.9 7.0 0.00 0.17 0.08 83 1008.1
20260905193012 58 216 0.9 7.0 0.00 0.17 0.08 82 1007.7
20260905191509 58 214 0.9 7.0 0.00 0.17 0.08 80 1007.4
20260905190008 58 346 0.9 6.1 0.00 0.17 0.08 81 1007.2
20260905184507 58 270 0.9 7.8 0.00 0.17 0.08 80 1006.9
20260905183005 58 9 0.9 7.8 0.00 0.17 0.08 80 1006.4
20260905181501 58 50 0.9 8.7 0.00 0.17 0.08 81 1006.0
20260905180104 59 274 1.7 7.0 0.00 0.17 0.08 80 1005.6
20260905174557 59 50 1.7 7.8 0.00 0.17 0.08 81 1005.3
20260905173103 59 214 0.9 7.8 0.00 0.17 0.08 79 1005.0
20260905171553 60 246 1.7 8.7 0.00 0.17 0.08 81 1004.8
20260905170052 60 327 2.6 14.8 0.00 0.17 0.08 82 1004.5
20260905164551 60 256 6.1 13.0 0.00 0.17 0.08 82 1004.4
20260905163050 61 204 3.5 13.9 0.00 0.17 0.08 82 1004.2
20260905161549 60 256 3.5 13.9 0.00 0.17 0.08 81 1004.1
20260905160047 60 296 6.1 13.9 0.00 0.17 0.08 83 1004.0
20260905154546 60 238 7.8 17.4 0.00 0.17 0.08 82 1003.9
20260905153045 60 221 8.7 15.6 0.01 0.17 0.08 82 1003.7
20260905151548 60 271 9.6 15.6 0.01 0.17 0.08 82 1003.4
20260905150044 60 242 7.8 17.4 0.01 0.17 0.08 82 1003.3
20260905144544 61 284 7.8 22.6 0.01 0.17 0.08 84 1003.2
20260905143048 60 231 10.4 20.0 0.00 0.17 0.07 81 1003.2
20260905141543 61 251 10.4 18.2 0.00 0.17 0.07 74 1003.3
20260905140045 60 223 7.8 22.6 0.00 0.17 0.07 77 1003.2
20260905134554 61 252 7.8 18.2 0.00 0.17 0.07 75 1003.0
20260905133044 62 240 9.6 20.9 0.00 0.17 0.07 74 1003.0
20260905131539 62 244 13.9 25.2 0.00 0.17 0.07 73 1002.9
20260905130038 63 235 8.7 23.5 0.00 0.17 0.07 72 1002.8